Weather observations for the past three days for
Homer, Homer Airport
Imperial (Metric)
Date Time (akdt) Wind (mph) Vis. (mi.) Weather Sky Cond. Temperature (ºF) Relative Humidity Wind Chill (°F) Heat Index (°F) Pressure Precipitation (in)
Air Dwpt 6 hour altimeter (in) sea level (mb) 1 hr 3 hr 6 hr
Max. Min.
24 05:53 Calm 8.00 Overcast OVC016 52 50 93% 30.02 1016.7
24 04:53 Calm 0.50 Fog VV002 52 50 93% 30.02 1016.6
24 03:53 SW 5 0.75 Fog/Mist VV002 52 50 55.9 50 93% 30.02 1016.7
24 02:53 Calm 0.25 Fog VV001 51.1 48.9 92% 30.01 1016.4
24 01:53 Calm 0.25 Fog VV001 52 48.9 89% 30.01 1016.4
24 00:53 Calm 0.25 Fog VV001 52 50 93% 30.02 1016.5
23 23:50 Calm 1.25 Fog/Mist SCT002 53.1 51.1 93% 30.02 1016.4
23 22:53 SW 3 2.00 Fog/Mist OVC005 53.1 51.1 93% 30.02 1016.5
23 21:53 W 3 10.00 Overcast OVC005 55 52 60.1 54 90% 30.02 1016.5
23 20:53 SW 8 10.00 Overcast SCT008 OVC024 55 51.1 87% 30.02 1016.6
23 19:53 SW 6 10.00 Overcast FEW010 OVC023 57 52 83% 30.04 1017.1
23 18:53 SW 9 10.00 Overcast OVC029 57 52 83% 30.04 1017.2
23 17:53 SW 7 10.00 Overcast OVC031 57.9 52 81% 30.04 1017.4
23 16:53 SW 9 10.00 Overcast BKN024 OVC030 57.9 53.1 84% 30.05 1017.7
23 15:53 SW 8 10.00 Overcast OVC022 57.9 54 61 57 87% 30.06 1017.9
23 14:53 SW 8 10.00 Overcast OVC018 57 52 83% 30.07 1018.2
23 13:53 W 7 10.00 Overcast BKN016 OVC026 59 53.1 81% 30.08 1018.5
23 12:53 SW 6 10.00 Overcast SCT002 OVC016 59 54 83% 30.09 1019.1
23 11:53 Calm 6.00 Overcast with Haze SCT002 OVC012 60.1 55 84% 30.1 1019.3
23 10:53 NE 3 10.00 Overcast SCT003 BKN013 OVC024 59 54 83% 30.12 1019.9
23 09:53 Calm 10.00 Overcast SCT003 SCT013 OVC027 57 55 57.9 55.9 93% 30.11 1019.8
23 08:53 Calm 10.00 Patches Fog SCT003 OVC013 55.9 53.1 90% 30.12 1020.0
23 07:53 Calm 6.00 Patches Fog SCT003 OVC013 57 54 90% 30.13 1020.2
23 06:53 Calm 10.00 Patches Fog SCT003 OVC029 55.9 55 97% 30.13 1020.2
23 05:53 Calm 6.00 Patches Fog SCT005 OVC034 55.9 54 93% 30.12 1020.0
23 04:53 Calm 10.00 Overcast OVC034 55.9 54 93% 30.11 1019.7
23 03:53 Calm 10.00 Overcast OVC034 57 54 57.9 55.9 90% 30.11 1019.7 0.05
23 02:53 Calm 10.00 Overcast OVC038 57 55.9 96% 30.11 1019.6
23 01:53 Calm 10.00 Overcast SCT032 OVC060 57 55 93% 30.1 1019.4
23 00:53 Calm 10.00 Overcast SCT060 OVC100 57 55 93% 30.11 1019.6 0.01 0.05
22 23:53 NE 6 9.00 Light Rain OVC100 57 54 90% 30.1 1019.3 0.02
22 22:53 NE 5 10.00 Light Rain OVC110 57 54 90% 30.09 1019.0 0.02
22 21:53 E 7 8.00 Light Rain OVC100 57.9 55 61 57.9 90% 30.09 1018.9 0.03 0.13
22 20:53 E 7 8.00 Light Rain OVC095 57.9 55 90% 30.08 1018.6 0.03
22 19:53 NE 7 6.00 Light Rain Fog/Mist OVC095 59 55.9 90% 30.08 1018.5 0.03
22 18:53 E 8 8.00 Light Rain OVC100 59 55 87% 30.07 1018.1 0.02 0.04
22 17:53 NE 7 10.00 Light Rain OVC100 60.1 55.9 86% 30.06 1018.0 0.01
22 16:53 NE 7 10.00 Light Rain OVC100 61 55.9 84% 30.06 1017.8 0.01
22 15:53 E 7 9.00 Light Rain OVC100 59 55 66 59 87% 30.05 1017.6 0.02 0.02
22 14:53 NE 5 10.00 Light Rain OVC100 61 55 81% 30.04 1017.3
22 13:53 E 8 10.00 Light Rain OVC100 61 53.1 75% 30.04 1017.2
22 12:53 Calm 10.00 Mostly Cloudy FEW050 BKN100 64.9 54 68% 30.03 1016.8
22 11:53 W 10 10.00 Mostly Cloudy BKN100 64 52 65% 30.01 1016.3
22 10:53 SW 5 10.00 Mostly Cloudy BKN100 63 55 76% 30.02 1016.5
22 09:53 S 3 10.00 Partly Cloudy SCT095 59 55 59 51.1 87% 30.02 1016.7
22 08:53 SW 3 10.00 Overcast OVC090 57 53.1 87% 30.02 1016.7
22 07:53 Calm 10.00 Overcast OVC090 55.9 53.1 90% 30.03 1017.0
22 06:53 S 3 10.00 Mostly Cloudy BKN110 54 51.1 90% 30.02 1016.5
22 05:53 NE 3 10.00 Fair CLR 52 48.9 89% 30.03 1017.0
22 04:53 Calm 10.00 Fair CLR 55 51.1 87% 30.03 1016.8
22 03:53 NE 6 10.00 Fair CLR 54 50 57 53.1 87% 30.04 1017.3
22 02:53 E 7 10.00 Fair CLR 55.9 51.1 84% 30.04 1017.3
22 01:53 NE 5 10.00 Fair CLR 54 50 87% 30.05 1017.6
22 00:53 NE 3 10.00 Fair CLR 53.1 48.9 86% 30.05 1017.6
21 23:53 W 3 10.00 Fair CLR 55.9 50 81% 30.04 1017.4
21 22:53 W 7 10.00 Fair CLR 55.9 51.1 84% 30.05 1017.6
21 21:53 SW 8 10.00 Fair CLR 55.9 51.1 69.1 55.9 84% 30.05 1017.8
21 20:53 SW 9 10.00 Fair CLR 59 52 78% 30.05 1017.7
21 19:53 W 8 10.00 Fair CLR 69.1 55 61% 30.05 1017.6
21 18:53 SW 7 10.00 Fair CLR 64.9 55.9 73% 30.06 1018.1
21 17:53 SW 7 10.00 Fair CLR 64.9 55 70% 30.08 1018.6
21 16:53 Vrbl 3 10.00 Fair CLR 66 55 68% 30.09 1019.0
21 15:53 Calm 10.00 Mostly Cloudy BKN110 66.9 55 66.9 54 66% 30.11 1019.4 0.03
21 14:53 N 5 10.00 Mostly Cloudy FEW080 SCT095 BKN110 59 54 83% 30.12 1020.1 0.02
21 13:53 N 5 10.00 Light Rain OVC095 57.9 52 81% 30.13 1020.3 0.01
21 12:53 NE 6 10.00 Mostly Cloudy BKN100 59 52 78% 30.15 1021.1
21 11:53 NE 7 10.00 Mostly Cloudy FEW024 BKN110 57.9 52 81% 30.16 1021.4
21 10:53 NE 3 10.00 Mostly Cloudy BKN110 55.9 51.1 84% 30.17 1021.6
21 09:53 NE 5 7.00 Overcast SCT002 OVC100 54 52 54 48.9 93% 30.18 1022.0
21 08:53 E 3 0.25 Fog VV002 53.1 52 96% 30.18 1022.1
21 07:53 Calm 0.25 Fog VV002 53.1 52 96% 30.18 1022.0
21 06:53 NE 3 0.15 Fog VV002 53.1 51.1 93% 30.19 1022.2
Date Time (akdt) Wind (mph) Vis. (mi.) Weather Sky Cond. Air Dwpt Max. Min. Relative Humidity Wind Chill (°F) Heat Index (°F) altimeter (in) sea level (mb) 1 hr 3 hr 6 hr
6 hour
Temperature (ºF) Pressure Precipitation (in)